Long Prairie, MN

4:08 AM CDT on May 27, 2018 (GMT -0500)
Long Prairie

Weather History for K14Y - August, 2014

Change the Weather History Date:

Sunday, August 31, 2014

  Actual Average (KLXL) Record (KLXL)
Temperature  
Mean Temperature 68 °F -  
Max Temperature 78 °F 77 °F 92 °F (1943)
Min Temperature 59 °F 53 °F 36 °F (1967)
Cooling Degree Days 4    
Growing Degree Days 18 (Base 50)    
Moisture  
Dew Point 63 °F    
Average Humidity 86    
Maximum Humidity 100    
Minimum Humidity 61    
Precipitation  
Precipitation 0.00 in - - ()
Sea Level Pressure  
Sea Level Pressure 29.71 in    
Wind  
Wind Speed 9 mph (SSE)    
Max Wind Speed 21 mph    
Max Gust Speed 26 mph    
Visibility 8 miles    
Events Fog , Thunderstorm    
Averages and records for this station are not official NWS values.
T = Trace of Precipitation, MM = Missing Value Source: NWS Daily Summary

Daily Weather History Graph

Daily Weather History Graph

Search for Another Location

Airport or City:

Astronomy

Aug. 31, 2014 Rise Set
Actual Time 6:39 AM CDT 7:59 PM CDT
Civil Twilight 6:08 AM CDT 8:30 PM CDT
Nautical Twilight 5:30 AM CDT 9:07 PM CDT
Astronomical Twilight 4:50 AM CDT 9:47 PM CDT
Moon 12:46 PM CDT (8/31) 10:54 PM CDT (8/31)
Length of Visible Light 14h 22m
Length of Day
13h 20m
Waxing Crescent, 32% of the Moon is Illuminated
Aug 31
Waxing Crescent
Sep 2
First Quarter
Sep 8
Full
Sep 15
Last Quarter
Sep 24
New

Hourly Weather History & Observations

Time (CDT) Temp. Dew Point Humidity Pressure Visibility Wind Dir Wind Speed Gust Speed Precip Events Conditions
12:18 AM 60.8 °F 60.8 °F 100% 29.86 in 5.0 mi SE 4.6 mph - N/A   Scattered Clouds
12:39 AM 60.8 °F 60.8 °F 100% 29.87 in 1.0 mi SSE 4.6 mph - N/A   Overcast
12:58 AM 60.8 °F 60.8 °F 100% 29.88 in 0.2 mi SSE 4.6 mph - N/A Fog Fog
1:19 AM 60.8 °F 60.8 °F 100% 29.88 in 0.2 mi SE 3.5 mph - N/A Fog Fog
1:39 AM 59.0 °F 59.0 °F 100% 29.88 in 0.5 mi SE 3.5 mph - N/A Fog Fog
1:58 AM 60.8 °F 59.0 °F 94% 29.87 in 3.0 mi SE 3.5 mph - N/A   Overcast
2:19 AM 60.8 °F 60.8 °F 100% 29.86 in 5.0 mi ESE 4.6 mph - N/A   Overcast
2:39 AM 60.8 °F 60.8 °F 100% 29.84 in 5.0 mi ESE 3.5 mph - N/A   Overcast
2:58 AM 59.0 °F 59.0 °F 100% 29.84 in 5.0 mi ESE 5.8 mph - N/A   Mostly Cloudy
3:18 AM 60.8 °F 60.8 °F 100% 29.83 in 5.0 mi ESE 8.1 mph - N/A   Overcast
3:39 AM 60.8 °F 60.8 °F 100% 29.81 in 5.0 mi ESE 9.2 mph - N/A   Overcast
3:59 AM 60.8 °F 60.8 °F 100% 29.81 in 7.0 mi SE 12.7 mph - N/A   Overcast
4:18 AM 60.8 °F 60.8 °F 100% 29.80 in 7.0 mi ESE 10.4 mph - N/A   Overcast
4:39 AM 60.8 °F 60.8 °F 100% 29.79 in 7.0 mi ESE 10.4 mph - N/A Thunderstorm Overcast
4:59 AM 60.8 °F 60.8 °F 100% 29.81 in 7.0 mi ESE 8.1 mph 17.3 mph N/A Thunderstorm Overcast
5:18 AM 60.8 °F 60.8 °F 100% 29.79 in 7.0 mi East 8.1 mph - N/A   Overcast
5:38 AM 60.8 °F 60.8 °F 100% 29.78 in 7.0 mi East 5.8 mph - N/A   Overcast
5:59 AM 60.8 °F 60.8 °F 100% 29.78 in 7.0 mi ESE 6.9 mph - N/A   Overcast
6:19 AM 60.8 °F 60.8 °F 100% 29.78 in 10.0 mi ESE 8.1 mph - N/A   Overcast
6:38 AM 60.8 °F 60.8 °F 100% 29.76 in 10.0 mi East 10.4 mph - N/A   Overcast
6:59 AM 60.8 °F 60.8 °F 100% 29.75 in 7.0 mi East 12.7 mph 19.6 mph N/A   Overcast
7:19 AM 60.8 °F 60.8 °F 100% 29.73 in 7.0 mi ESE 11.5 mph 20.7 mph N/A   Overcast
7:38 AM 62.6 °F 60.8 °F 94% 29.72 in 7.0 mi East 10.4 mph 16.1 mph N/A   Overcast
7:59 AM 62.6 °F 60.8 °F 94% 29.73 in 10.0 mi ESE 10.4 mph 16.1 mph N/A   Overcast
8:19 AM 62.6 °F 60.8 °F 94% 29.71 in 10.0 mi ESE 11.5 mph 19.6 mph N/A   Overcast
8:39 AM 62.6 °F 60.8 °F 94% 29.71 in 10.0 mi ESE 13.8 mph 25.3 mph N/A   Overcast
8:59 AM 62.6 °F 60.8 °F 94% 29.70 in 10.0 mi ESE 12.7 mph 20.7 mph N/A   Overcast
9:19 AM 64.4 °F 60.8 °F 88% 29.71 in 10.0 mi ESE 10.4 mph 18.4 mph N/A   Overcast
9:39 AM 64.4 °F 60.8 °F 88% 29.70 in 10.0 mi SE 15.0 mph 21.9 mph N/A   Overcast
9:58 AM 66.2 °F 62.6 °F 88% 29.69 in 10.0 mi SE 18.4 mph 24.2 mph N/A   Overcast
10:19 AM 68.0 °F 62.6 °F 83% 29.69 in 10.0 mi SE 18.4 mph 26.5 mph N/A   Overcast
10:39 AM 68.0 °F 62.6 °F 83% 29.68 in 10.0 mi SE 16.1 mph 26.5 mph N/A   Overcast
10:59 AM 69.8 °F 62.6 °F 78% 29.68 in 10.0 mi SE 16.1 mph - N/A   Overcast
11:19 AM 69.8 °F 62.6 °F 78% 29.68 in 10.0 mi SSE 18.4 mph 23.0 mph N/A   Overcast
11:39 AM 69.8 °F 64.4 °F 83% 29.67 in 10.0 mi SSE 15.0 mph - N/A   Overcast
11:59 AM 71.6 °F 64.4 °F 78% 29.67 in 10.0 mi SSE 18.4 mph - N/A   Overcast
12:19 PM 71.6 °F 64.4 °F 78% 29.66 in 10.0 mi SSE 12.7 mph 20.7 mph N/A   Overcast
12:39 PM 73.4 °F 66.2 °F 78% 29.65 in 10.0 mi SSE 17.3 mph 21.9 mph N/A   Overcast
12:58 PM 73.4 °F 64.4 °F 73% 29.65 in 10.0 mi SSE 16.1 mph 20.7 mph N/A   Overcast
1:19 PM 73.4 °F 64.4 °F 73% 29.66 in 10.0 mi SSE 17.3 mph - N/A Thunderstorm Overcast
1:39 PM 77.0 °F 68.0 °F 74% 29.65 in 10.0 mi SSE 15.0 mph 20.7 mph N/A   Mostly Cloudy
1:59 PM 77.0 °F 66.2 °F 69% 29.65 in 10.0 mi SSE 19.6 mph 25.3 mph N/A   Mostly Cloudy
2:19 PM 77.0 °F 68.0 °F 74% 29.66 in 10.0 mi SSE 20.7 mph 25.3 mph N/A   Mostly Cloudy
2:39 PM 78.8 °F 68.0 °F 69% 29.66 in 10.0 mi SSE 17.3 mph 24.2 mph N/A   Mostly Cloudy
2:59 PM 77.0 °F 66.2 °F 69% 29.65 in 10.0 mi SSE 15.0 mph - N/A   Mostly Cloudy
3:19 PM 77.0 °F 66.2 °F 69% 29.65 in 7.0 mi South 16.1 mph 20.7 mph N/A   Mostly Cloudy
3:39 PM 78.8 °F 64.4 °F 61% 29.65 in 10.0 mi South 12.7 mph 19.6 mph N/A   Mostly Cloudy
3:59 PM 78.8 °F 64.4 °F 61% 29.64 in 10.0 mi South 15.0 mph - N/A   Mostly Cloudy
4:19 PM 78.8 °F 66.2 °F 65% 29.65 in 10.0 mi South 12.7 mph 19.6 mph N/A   Mostly Cloudy
4:39 PM 78.8 °F 68.0 °F 69% 29.65 in 10.0 mi South 10.4 mph - N/A   Mostly Cloudy
4:59 PM 77.0 °F 66.2 °F 69% 29.66 in 10.0 mi SSW 10.4 mph - N/A   Mostly Cloudy
5:19 PM 75.2 °F 66.2 °F 73% 29.65 in 10.0 mi West 15.0 mph 21.9 mph N/A   Mostly Cloudy
5:39 PM 75.2 °F 64.4 °F 69% 29.66 in 10.0 mi West 12.7 mph 25.3 mph N/A Thunderstorm Scattered Clouds
5:59 PM 75.2 °F 62.6 °F 65% 29.67 in 10.0 mi West 11.5 mph 17.3 mph N/A   Scattered Clouds
6:19 PM 73.4 °F 62.6 °F 69% 29.66 in 10.0 mi West 13.8 mph 18.4 mph N/A   Clear
6:39 PM 71.6 °F 62.6 °F 73% 29.65 in 10.0 mi West 12.7 mph 17.3 mph N/A   Clear
6:59 PM 71.6 °F 62.6 °F 73% 29.63 in 10.0 mi West 6.9 mph - N/A   Scattered Clouds
7:19 PM 71.6 °F 62.6 °F 73% 29.65 in 10.0 mi West 6.9 mph - N/A   Mostly Cloudy
7:39 PM 69.8 °F 62.6 °F 78% 29.65 in 10.0 mi West 3.5 mph - N/A   Overcast
7:59 PM 69.8 °F 62.6 °F 78% 29.65 in 10.0 mi WSW 3.5 mph - N/A   Overcast
8:19 PM 68.0 °F 62.6 °F 83% 29.64 in 10.0 mi Calm Calm - N/A   Overcast
8:38 PM 68.0 °F 62.6 °F 83% 29.63 in 10.0 mi Calm Calm - N/A   Overcast
9:19 PM 68.0 °F 64.4 °F 88% 29.63 in 10.0 mi Calm Calm - N/A   Overcast
9:39 PM 66.2 °F 62.6 °F 88% 29.65 in 10.0 mi Calm Calm - N/A   Overcast
9:59 PM 64.4 °F 62.6 °F 94% 29.66 in 10.0 mi Calm Calm - N/A   Overcast
10:18 PM 66.2 °F 62.6 °F 88% 29.66 in 10.0 mi Calm Calm - N/A   Overcast
10:39 PM 66.2 °F 62.6 °F 88% 29.66 in 10.0 mi South 3.5 mph - N/A   Overcast
10:59 PM 64.4 °F 62.6 °F 94% 29.66 in 10.0 mi Calm Calm - N/A   Overcast
11:19 PM 64.4 °F 62.6 °F 94% 29.66 in 10.0 mi Calm Calm - N/A   Overcast
11:39 PM 64.4 °F 62.6 °F 94% 29.67 in 10.0 mi SSW 3.5 mph - N/A   Overcast
11:59 PM 64.4 °F 62.6 °F 94% 29.66 in 10.0 mi SW 3.5 mph - N/A   Overcast